sat.trackr.live / text

‹ back to catalog

STARLINK-36333

NORAD 68256 · 2026-054AA

PAYLOAD ACTIVE UNKNOWN

§ Identity

Operator
Country
US
Launch date
2026-03-17
Launch site
AFETR
Launch vehicle
Mass (kg)
RCS (m²)

Purposes: comms

External: N2YO · Heavens-Above · Gunter

§ Orbital elements

Epoch: 2026-09-19T22:36:53.735040Z

Period
93.85 min
Inclination
53.1563°
Eccentricity
0.0001243
Mean motion
15.34396339 rev/d
Perigee alt
461.9 km
Apogee alt
463.6 km
Semi-major
6,840.9 km
B*
3.6547e-4
RAAN
112.4235°
Arg perigee
91.2434°
Mean anomaly
268.8710°
Rev number
2,876

§ Raw data

STARLINK-363331 68256U 26054AA  26262.94228860  .00011990  00000+0  36547-3 0  99982 68256  53.1563 112.4235 0001243  91.2434 268.8710 15.34396339 28764

JSON: /api/v1/satellites/68256 · /tle

For live sub-satellite position, see the globe view (requires WebGL).

§ Visibility from observer

Set your observer location to see the next 7 days of passes ≥ 10°. The values pass through the URL so the page stays shareable.

No JS? Fill the form by hand. The geolocation button needs JavaScript.